Hot Springs, VA

3:58 PM EST on February 13, 2016 (GMT -0500)
Ingalls

Weather History for KHSP - November, 2013

Change the Weather History Date:

Monday, November 18, 2013

  Actual Average Record
Temperature  
Mean Temperature 44 °F -  
Max Temperature 55 °F 44 °F 60 °F (2001)
Min Temperature 33 °F 31 °F 9 °F (2014)
Degree Days  
Heating Degree Days 21    
Moisture  
Dew Point 32 °F    
Average Humidity 64    
Maximum Humidity 100    
Minimum Humidity 37    
Precipitation  
Precipitation 0.07 in - - ()
Sea Level Pressure  
Sea Level Pressure 29.91 in    
Wind  
Wind Speed 21 mph (West)    
Max Wind Speed 32 mph    
Max Gust Speed 46 mph    
Visibility 10 miles    
Events Rain    
Averages and records for this station are not official NWS values.
T = Trace of Precipitation, MM = Missing Value Source: NWS Daily Summary

Daily Weather History Graph

Daily Weather History Graph

Search for Another Location

Airport or City:

Trip Planner

Search our weather history database for the weather conditions in past years. The results will help you decide how hot, cold, wet, or windy it might be!

Date:

Astronomy

Nov. 18, 2013 Rise Set
Actual Time 7:03 AM EST 5:05 PM EST
Civil Twilight 6:35 AM EST 5:33 PM EST
Nautical Twilight 6:03 AM EST 6:05 PM EST
Astronomical Twilight 5:31 AM EST 6:36 PM EST
Moon 6:06 PM EST (11/18) 7:50 AM EST (11/18)
Length of Visible Light 10h 58m
Length of Day
10h 02m
Full, 99% of the Moon is Illuminated
Nov 18
Full
Nov 25
Last Quarter
Dec 2
New
Dec 9
First Quarter
Dec 17
Full

Hourly Weather History & Observations

Time (EST) Temp. Windchill Dew Point Humidity Pressure Visibility Wind Dir Wind Speed Gust Speed Precip Events Conditions
12:15 AM 55.4 °F - 55.4 °F 100% 29.85 in 10.0 mi SSW 15.0 mph 27.6 mph N/A   Overcast
12:35 AM 55.4 °F - 55.4 °F 100% 29.85 in 5.0 mi WSW 24.2 mph 29.9 mph N/A Rain Light Rain
12:55 AM 51.8 °F - 51.8 °F 100% 29.88 in 0.2 mi WNW 16.1 mph 26.5 mph 0.01 in Rain Light Rain
1:15 AM 46.4 °F 37.9 °F 46.4 °F 100% 29.90 in 10.0 mi West 25.3 mph 31.1 mph 0.05 in Rain Light Rain
1:35 AM 46.4 °F 37.9 °F 46.4 °F 100% 29.88 in 10.0 mi West 25.3 mph 33.4 mph 0.06 in Rain Light Rain
1:55 AM 44.6 °F 35.3 °F 44.6 °F 100% 29.87 in 10.0 mi West 26.5 mph 36.8 mph N/A   Overcast
2:15 AM 44.6 °F 35.7 °F 44.6 °F 100% 29.88 in 10.0 mi WNW 24.2 mph 34.5 mph N/A   Mostly Cloudy
2:35 AM 44.6 °F 35.9 °F 44.6 °F 100% 29.89 in 10.0 mi West 23.0 mph 29.9 mph N/A   Overcast
2:55 AM 46.4 °F 39.0 °F 39.2 °F 76% 29.89 in 10.0 mi West 19.6 mph 31.1 mph N/A   Overcast
3:15 AM 46.4 °F 38.3 °F 39.2 °F 76% 29.89 in 10.0 mi West 23.0 mph 29.9 mph N/A   Overcast
3:35 AM 46.4 °F 39.2 °F 39.2 °F 76% 29.89 in 10.0 mi West 18.4 mph 27.6 mph N/A   Overcast
3:55 AM 46.4 °F 38.7 °F 37.4 °F 71% 29.89 in 10.0 mi West 20.7 mph 31.1 mph N/A   Mostly Cloudy
4:15 AM 46.4 °F 39.5 °F 37.4 °F 71% 29.88 in 10.0 mi West 17.3 mph 27.6 mph N/A   Scattered Clouds
4:35 AM 44.6 °F 36.6 °F 37.4 °F 76% 29.89 in 10.0 mi West 19.6 mph 26.5 mph N/A   Scattered Clouds
4:55 AM 44.6 °F 35.7 °F 39.2 °F 81% 29.89 in 10.0 mi West 24.2 mph 31.1 mph N/A   Unknown
4:57 AM 44.6 °F 36.1 °F 39.2 °F 81% 29.88 in - West 21.9 mph 31.1 mph N/A   Unknown
5:15 AM 44.6 °F 36.4 °F 39.2 °F 81% 29.88 in 10.0 mi West 20.7 mph 29.9 mph N/A   Scattered Clouds
5:35 AM 44.6 °F 36.1 °F 39.2 °F 81% 29.88 in 10.0 mi West 21.9 mph 34.5 mph N/A   Clear
5:55 AM 44.6 °F 36.1 °F 37.4 °F 76% 29.88 in 10.0 mi West 21.9 mph 29.9 mph N/A   Clear
6:15 AM 44.6 °F 36.1 °F 37.4 °F 76% 29.89 in 10.0 mi West 21.9 mph 28.8 mph N/A   Clear
6:35 AM 42.8 °F 34.0 °F 37.4 °F 81% 29.88 in 10.0 mi West 20.7 mph 31.1 mph N/A   Clear
6:55 AM 42.8 °F 33.1 °F 37.4 °F 81% 29.88 in 10.0 mi West 25.3 mph 33.4 mph N/A   Clear
7:15 AM 42.8 °F 33.3 °F 37.4 °F 81% 29.89 in 10.0 mi West 24.2 mph 29.9 mph N/A   Clear
7:35 AM 42.8 °F 33.5 °F 35.6 °F 76% 29.89 in 10.0 mi West 23.0 mph 33.4 mph N/A   Clear
7:55 AM 42.8 °F 33.3 °F 35.6 °F 76% 29.88 in 10.0 mi West 24.2 mph 31.1 mph N/A   Clear
8:15 AM 42.8 °F 33.5 °F 35.6 °F 76% 29.89 in 10.0 mi West 23.0 mph 29.9 mph N/A   Clear
8:35 AM 42.8 °F 33.8 °F 35.6 °F 76% 29.89 in 10.0 mi West 21.9 mph 35.7 mph N/A   Clear
8:55 AM 42.8 °F 34.0 °F 33.8 °F 70% 29.89 in 10.0 mi West 20.7 mph 34.5 mph N/A   Clear
9:15 AM 44.6 °F 36.4 °F 33.8 °F 66% 29.90 in 10.0 mi West 20.7 mph 32.2 mph N/A   Clear
9:35 AM 44.6 °F 35.9 °F 33.8 °F 66% 29.90 in 10.0 mi West 23.0 mph 33.4 mph N/A   Clear
9:55 AM 44.6 °F 36.1 °F 33.8 °F 66% 29.90 in 10.0 mi WNW 21.9 mph 28.8 mph N/A   Clear
10:15 AM 46.4 °F 38.5 °F 33.8 °F 62% 29.91 in 10.0 mi West 21.9 mph 32.2 mph N/A   Clear
10:35 AM 46.4 °F 37.9 °F 30.2 °F 53% 29.91 in 10.0 mi West 25.3 mph 35.7 mph N/A   Clear
10:55 AM 46.4 °F 39.2 °F 30.2 °F 53% 29.91 in 10.0 mi West 18.4 mph 34.5 mph N/A   Clear
11:15 AM 46.4 °F 39.2 °F 32.0 °F 57% 29.91 in 10.0 mi West 18.4 mph 31.1 mph N/A   Clear
11:35 AM 48.2 °F - 30.2 °F 50% 29.91 in 10.0 mi West 18.4 mph 27.6 mph N/A   Clear
11:55 AM 48.2 °F - 30.2 °F 50% 29.90 in 10.0 mi West 13.8 mph 23.0 mph N/A   Clear
12:15 PM 48.2 °F - 30.2 °F 50% 29.91 in 10.0 mi West 16.1 mph 25.3 mph N/A   Clear
12:35 PM 48.2 °F - 28.4 °F 46% 29.90 in 10.0 mi WNW 19.6 mph 26.5 mph N/A   Clear
12:55 PM 48.2 °F - 26.6 °F 43% 29.90 in 10.0 mi West 17.3 mph 23.0 mph N/A   Clear
1:15 PM 50.0 °F - 26.6 °F 40% 29.90 in 10.0 mi West 17.3 mph 23.0 mph N/A   Clear
1:35 PM 50.0 °F - 26.6 °F 40% 29.90 in 10.0 mi West 17.3 mph 27.6 mph N/A   Clear
1:55 PM 48.2 °F - 24.8 °F 40% 29.90 in 10.0 mi West 18.4 mph 28.8 mph N/A   Clear
2:15 PM 48.2 °F - 23.0 °F 37% 29.90 in 10.0 mi West 20.7 mph 32.2 mph N/A   Clear
2:35 PM 48.2 °F - 23.0 °F 37% 29.89 in 10.0 mi West 20.7 mph 31.1 mph N/A   Clear
2:55 PM 48.2 °F - 23.0 °F 37% 29.90 in 10.0 mi WNW 17.3 mph 29.9 mph N/A   Clear
3:15 PM 48.2 °F - 24.8 °F 40% 29.90 in 10.0 mi West 24.2 mph 32.2 mph N/A   Clear
3:35 PM 48.2 °F - 24.8 °F 40% 29.89 in 10.0 mi West 20.7 mph 31.1 mph N/A   Clear
3:55 PM 48.2 °F - 24.8 °F 40% 29.89 in 10.0 mi West 24.2 mph 31.1 mph N/A   Clear
4:15 PM 46.4 °F 39.2 °F 24.8 °F 43% 29.89 in 10.0 mi West 18.4 mph 29.9 mph N/A   Clear
4:35 PM 46.4 °F 38.3 °F 24.8 °F 43% 29.89 in 10.0 mi West 23.0 mph 31.1 mph N/A   Clear
4:55 PM 44.6 °F 37.8 °F 26.6 °F 49% 29.90 in 10.0 mi West 15.0 mph 29.9 mph N/A   Clear
5:15 PM 44.6 °F 36.9 °F 26.6 °F 49% 29.90 in 10.0 mi WNW 18.4 mph 34.5 mph N/A   Clear
5:35 PM 42.8 °F 34.0 °F 26.6 °F 53% 29.91 in 10.0 mi West 20.7 mph 28.8 mph N/A   Clear
5:55 PM 42.8 °F 33.5 °F 26.6 °F 53% 29.90 in 10.0 mi West 23.0 mph 34.5 mph N/A   Clear
6:15 PM 42.8 °F 33.3 °F 26.6 °F 53% 29.91 in 10.0 mi West 24.2 mph 34.5 mph N/A   Clear
6:35 PM 42.8 °F 32.3 °F 24.8 °F 49% 29.91 in 10.0 mi WNW 29.9 mph 38.0 mph N/A   Clear
6:55 PM 41.0 °F 30.7 °F 24.8 °F 53% 29.92 in 10.0 mi West 25.3 mph 38.0 mph N/A   Clear
7:15 PM 41.0 °F 30.2 °F 24.8 °F 53% 29.92 in 10.0 mi WNW 27.6 mph 38.0 mph N/A   Clear
7:35 PM 39.2 °F 29.0 °F 24.8 °F 56% 29.93 in 10.0 mi WNW 21.9 mph 33.4 mph N/A   Clear
7:55 PM 39.2 °F 28.0 °F 24.8 °F 56% 29.94 in 10.0 mi WNW 26.5 mph 39.1 mph N/A   Clear
8:15 PM 39.2 °F 27.0 °F 24.8 °F 56% 29.94 in 10.0 mi WNW 32.2 mph 46.0 mph N/A   Clear
8:35 PM 39.2 °F 28.0 °F 24.8 °F 56% 29.94 in 10.0 mi WNW 26.5 mph 38.0 mph N/A   Scattered Clouds
8:55 PM 37.4 °F 26.4 °F 24.8 °F 60% 29.95 in 10.0 mi WNW 23.0 mph 39.1 mph N/A   Clear
9:15 PM 37.4 °F 27.2 °F 24.8 °F 60% 29.95 in 10.0 mi West 19.6 mph 29.9 mph N/A   Clear
9:35 PM 37.4 °F 26.1 °F 23.0 °F 56% 29.95 in 10.0 mi WNW 24.2 mph 33.4 mph N/A   Scattered Clouds
9:55 PM 35.6 °F 24.5 °F 23.0 °F 60% 29.96 in 10.0 mi WNW 20.7 mph 29.9 mph N/A   Clear
10:15 PM 35.6 °F 24.0 °F 23.0 °F 60% 29.96 in 10.0 mi WNW 23.0 mph 29.9 mph N/A   Clear
10:35 PM 35.6 °F 25.9 °F 23.0 °F 60% 29.97 in 10.0 mi WNW 16.1 mph 34.5 mph N/A   Clear
10:55 PM 35.6 °F 26.2 °F 23.0 °F 60% 29.97 in 10.0 mi WNW 15.0 mph 26.5 mph N/A   Clear
11:15 PM 33.8 °F 22.2 °F 23.0 °F 65% 29.97 in 10.0 mi WNW 20.7 mph 29.9 mph N/A   Scattered Clouds
11:35 PM 33.8 °F 22.5 °F 24.8 °F 70% 29.97 in 10.0 mi WNW 19.6 mph 31.1 mph N/A   Scattered Clouds
11:55 PM 33.8 °F 22.2 °F 23.0 °F 65% 29.97 in 10.0 mi WNW 20.7 mph 32.2 mph N/A   Scattered Clouds